Погода в Комсомольске

Россия / Калининградская область     54°37′37″N   20°45′20″E
темп.,
°C
ветер,
м/с
пор.,
м/с
влажн.,
%
обл.,
%
осадки,
мм/ч
давл.,
гПа
погр.,
м
8 мая, сб
сб823:00+2зсз379765 0.0 1009159
02:00+4сз4775100 0.0 1011827
05:000з22875 0.0 101220
08:00+6зюз34695 0.0 1014537
11:00+9зюз676142 0.1 10141460
14:00+9з677158 0.8 10151276
17:00+9зсз68755 1.1 10161052
20:00+5зсз34920 1.3 101873
9 мая, вс
вс923:00+2юз22945 0.0 101925
02:00+1ююз349323 0.0 101952
05:00+1ю359099 0.0 101983
08:00+7ю597565 0.0 1019353
11:00+13ю71060100 0.0 10181056
14:00+12ю61263100 0.0 1017677
17:00+14ю61271100 0.0 1016891
20:00+12ююв4986100 0.0 1016172
10 мая, пн
пн1023:00+9ююв5139229 0.0 1016240
02:00+9ююв5148790 0.0 1016286
05:00+8ююв51389100 0.0 1017259
08:00+12ююв61381100 0.0 1017370
11:00+17ююв8126628 0.0 1016634
14:00+20ююв8136413 0.0 1015961
17:00+20ююв8146786 0.0 10151147
20:00+16ююв6157691 0.0 1015586
11 мая, вт
вт1123:00+15ююв616803 0.0 1015526
02:00+13юв614860 0.0 1016399
05:00+11юв614890 0.0 1015368
08:00+14юв715810 0.0 1015526
11:00+19ююв913690 0.0 1014839
14:00+22ююв813680 0.0 10131080
17:00+21ююв813690 0.0 10131093
20:00+17юв614765 0.0 1014614
12 мая, ср
ср1223:00+15юв817710 0.0 1014569
02:00+13юв716740 0.0 1014499
05:00+12юв6167188 0.0 1014449
08:00+14юв715740 0.0 1015539
11:00+18юв812640 0.0 1014908
14:00+21юв8126319 0.0 10141302
17:00+21юв711695 0.0 10141393
20:00+17юв5127742 0.0 1014415